,,,PA_Meas_PMT16A,,PR_Meas_QMR101_102,,RH_Meas_QMH101,,SR_Meas_QMS101,,TA_Meas_QMH101,,GenWind,,GenWind,
date,time,status,PA,status,PR,status,RH,status,SR,status,TA,status,DirAvg,status,SpdAvg,
2012-07-25, 08:39:04,VALID,1005.57,VALID,0,VALID,95.2847,VALID,135.549,VALID,23.6841,VALID,317,VALID,0.0183594,
2012-07-25, 08:40:04,VALID,1005.54,VALID,0,VALID,95.3076,VALID,139.462,VALID,23.6646,VALID,341,VALID,0.314453,
2012-07-25, 08:41:04,VALID,1005.5,VALID,0,VALID,95.2923,VALID,142.07,VALID,23.6044,VALID,354,VALID,0.415234,
2012-07-25, 08:42:04,VALID,1005.5,VALID,0,VALID,95.2695,VALID,143.782,VALID,23.6257,VALID,251,VALID,0.182812,
2012-07-25, 08:43:04,VALID,1005.51,VALID,0.5,VALID,95.2847,VALID,144.352,VALID,23.6434,VALID,348,VALID,0.714453,
2012-07-25, 08:44:04,VALID,1005.48,VALID,0,VALID,95.2847,VALID,143.619,VALID,23.7017,VALID,334,VALID,0.677734,
2012-07-25, 08:45:04,VALID,1005.44,VALID,0,VALID,95.2923,VALID,142.478,VALID,23.7425,VALID,353,VALID,1.08789,
2012-07-25, 08:46:04,VALID,1005.45,VALID,0,VALID,95.2847,VALID,142.559,VALID,23.7425,VALID,345,VALID,1.24492,
2012-07-25, 08:47:04,VALID,1005.46,VALID,0,VALID,95.3,VALID,143.537,VALID,23.8203,VALID,14,VALID,0.358203,
2012-07-25, 08:48:04,VALID,1005.48,VALID,0,VALID,95.3152,VALID,147.124,VALID,23.8787,VALID,95,VALID,0.254297,
2012-07-25, 08:49:04,VALID,1005.45,VALID,0,VALID,95.3152,VALID,153.563,VALID,23.9159,VALID,286,VALID,0.763672,
2012-07-25, 08:50:04,VALID,1005.41,VALID,0,VALID,95.2923,VALID,162.692,VALID,23.9566,VALID,343,VALID,0.167578,
2012-07-25, 08:51:04,VALID,1005.37,VALID,0,VALID,95.2923,VALID,173.369,VALID,23.9761,VALID,345,VALID,0.460938,
2012-07-25, 08:52:04,VALID,1005.36,VALID,0,VALID,95.2618,VALID,186.818,VALID,24.0132,VALID,284,VALID,1.34531,
2012-07-25, 08:53:04,VALID,1005.34,VALID,0,VALID,95.2923,VALID,200.756,VALID,24.0734,VALID,4,VALID,0.281641,
2012-07-25, 08:54:04,VALID,1005.35,VALID,0,VALID,95.2771,VALID,215.673,VALID,24.1087,VALID,295,VALID,0.873047,
2012-07-25, 08:55:04,VALID,1005.37,VALID,0,VALID,95.3,VALID,227.817,VALID,24.13,VALID,317,VALID,0.0121094,
2012-07-25, 08:56:04,VALID,1005.39,VALID,0,VALID,95.2161,VALID,240.37,VALID,24.1689,VALID,296,VALID,2.01445,
2012-07-25, 08:57:04,VALID,1005.38,VALID,0,VALID,95.2466,VALID,255.041,VALID,24.1494,VALID,301,VALID,1.08828,
2012-07-25, 08:58:04,VALID,1005.42,VALID,0,VALID,95.2618,VALID,272.158,VALID,24.1865,VALID,276,VALID,0.995313,
2012-07-25, 08:59:04,VALID,1005.39,VALID,0,VALID,95.3076,VALID,288.542,VALID,24.3246,VALID,288,VALID,1.14883,
2012-07-25, 09:00:04,VALID,1005.42,VALID,0,VALID,95.2695,VALID,286.993,VALID,24.383,VALID,300,VALID,0.830078,
2012-07-25, 09:01:04,VALID,1005.4,VALID,0,VALID,95.2923,VALID,263.844,VALID,24.5193,VALID,280,VALID,1.12383,
2012-07-25, 09:02:04,VALID,1005.37,VALID,0,VALID,95.2466,VALID,249.906,VALID,24.4804,VALID,284,VALID,1.51016,
2012-07-25, 09:03:04,VALID,1005.39,VALID,0,VALID,95.2084,VALID,229.855,VALID,24.5193,VALID,283,VALID,0.975781,
2012-07-25, 09:04:04,VALID,1005.38,VALID,0,VALID,95.2084,VALID,253.819,VALID,24.4785,VALID,293,VALID,1.27656,
2012-07-25, 09:05:04,VALID,1005.37,VALID,0,VALID,95.2313,VALID,266.86,VALID,24.5582,VALID,319,VALID,0.296875,
2012-07-25, 09:06:04,VALID,1005.36,VALID,0,VALID,95.1932,VALID,288.216,VALID,24.6166,VALID,303,VALID,0.671875,
2012-07-25, 09:07:04,VALID,1005.37,VALID,0,VALID,95.2466,VALID,301.338,VALID,24.7121,VALID,273,VALID,0.342969,
2012-07-25, 09:08:04,VALID,1005.33,VALID,0,VALID,95.2084,VALID,300.686,VALID,24.7724,VALID,339,VALID,0.485938,
2012-07-25, 09:09:04,VALID,1005.3,VALID,0,VALID,95.1169,VALID,303.865,VALID,24.8522,VALID,320,VALID,1.2957,
2012-07-25, 09:10:04,VALID,1005.34,VALID,0,VALID,95.2237,VALID,310.467,VALID,24.8892,VALID,324,VALID,0.394922,
2012-07-25, 09:11:04,VALID,1005.36,VALID,0,VALID,95.1474,VALID,311.446,VALID,24.9671,VALID,288,VALID,0.887109,
2012-07-25, 09:12:04,VALID,1005.32,VALID,0,VALID,95.155,VALID,321.227,VALID,25.0469,VALID,277,VALID,0.173047,
2012-07-25, 09:13:04,VALID,1005.32,VALID,0,VALID,95.1932,VALID,337.691,VALID,25.1034,VALID,258,VALID,0.847656,
2012-07-25, 09:14:04,VALID,1005.32,VALID,0,VALID,95.094,VALID,336.061,VALID,25.1248,VALID,280,VALID,1.36016,
2012-07-25, 09:15:04,VALID,1005.29,VALID,0,VALID,95.0558,VALID,328.318,VALID,25.045,VALID,270,VALID,0.778516,
2012-07-25, 09:16:04,VALID,1005.32,VALID,0,VALID,94.9948,VALID,321.145,VALID,24.93,VALID,234,VALID,0.914063,
2012-07-25, 09:17:04,VALID,1005.32,VALID,0,VALID,94.8728,VALID,313.972,VALID,24.8503,VALID,268,VALID,1.04531,
2012-07-25, 09:18:04,VALID,1005.3,VALID,0,VALID,94.8346,VALID,308.593,VALID,24.9282,VALID,264,VALID,0.981641,
2012-07-25, 09:19:04,VALID,1005.31,VALID,0,VALID,94.8117,VALID,307.37,VALID,25.0274,VALID,348,VALID,0.55625,
2012-07-25, 09:20:04,VALID,1005.32,VALID,0,VALID,94.7812,VALID,310.06,VALID,25.1053,VALID,285,VALID,0.840234,
2012-07-25, 09:21:04,VALID,1005.31,VALID,0,VALID,94.4913,VALID,316.744,VALID,25.006,VALID,285,VALID,1.99531,
2012-07-25, 09:22:04,VALID,1005.29,VALID,0,VALID,94.4227,VALID,330.111,VALID,25.045,VALID,299,VALID,0.232812,
2012-07-25, 09:23:04,VALID,1005.25,VALID,0,VALID,94.5371,VALID,333.29,VALID,25.1813,VALID,207,VALID,0.409766,
2012-07-25, 09:24:04,VALID,1005.26,VALID,0,VALID,94.4761,VALID,340.707,VALID,25.2786,VALID,228,VALID,0.588281,
2012-07-25, 09:25:04,VALID,1005.22,VALID,0,VALID,94.4684,VALID,344.538,VALID,25.3565,VALID,271,VALID,0.527344,
2012-07-25, 09:26:04,VALID,1005.18,VALID,0,VALID,94.2243,VALID,326.851,VALID,25.3974,VALID,268,VALID,0.559766,
2012-07-25, 09:27:04,VALID,1005.19,VALID,0,VALID,93.6674,VALID,314.461,VALID,25.3584,VALID,250,VALID,1.75625,
2012-07-25, 09:28:04,VALID,1005.16,VALID,0,VALID,93.7971,VALID,305.414,VALID,25.4149,VALID,245,VALID,0.609766,
2012-07-25, 09:29:04,VALID,1005.19,VALID,0,VALID,93.9191,VALID,296.692,VALID,25.5123,VALID,241,VALID,0.419922,
2012-07-25, 09:30:04,VALID,1005.17,VALID,0,VALID,93.9649,VALID,289.764,VALID,25.5921,VALID,282,VALID,0.0148437,
2012-07-25, 09:31:04,VALID,1005.18,VALID,0,VALID,93.9039,VALID,284.548,VALID,25.67,VALID,227,VALID,0.346484,
2012-07-25, 09:32:04,VALID,1005.18,VALID,0,VALID,93.0952,VALID,282.836,VALID,25.6311,VALID,221,VALID,1.01016,
2012-07-25, 09:33:04,VALID,1005.2,VALID,0,VALID,92.3476,VALID,283.977,VALID,25.6116,VALID,279,VALID,1.90977,
2012-07-25, 09:34:04,VALID,1005.2,VALID,0.5,VALID,92.5536,VALID,287.319,VALID,25.6311,VALID,302,VALID,0.491016,
2012-07-25, 09:35:04,VALID,1005.19,VALID,0,VALID,92.4544,VALID,293.432,VALID,25.6506,VALID,273,VALID,0.768359,
2012-07-25, 09:36:04,VALID,1005.19,VALID,0,VALID,91.0431,VALID,300.034,VALID,25.6311,VALID,286,VALID,2.20664,
2012-07-25, 09:37:04,VALID,1005.17,VALID,0,VALID,90.6692,VALID,305.006,VALID,25.6116,VALID,267,VALID,1.73945,
2012-07-25, 09:38:04,VALID,1005.14,VALID,0,VALID,90.9668,VALID,305.984,VALID,25.67,VALID,280,VALID,1.02695,
2012-07-25, 09:39:04,VALID,1005.16,VALID,0,VALID,90.9897,VALID,307.615,VALID,25.6681,VALID,286,VALID,1.24023,
2012-07-25, 09:40:04,VALID,1005.15,VALID,0,VALID,91.661,VALID,298.649,VALID,25.7869,VALID,298,VALID,0.319141,
2012-07-25, 09:41:04,VALID,1005.16,VALID,0,VALID,90.6082,VALID,293.677,VALID,25.7655,VALID,265,VALID,1.23789,
2012-07-25, 09:42:04,VALID,1005.19,VALID,0,VALID,89.1435,VALID,287.563,VALID,25.785,VALID,269,VALID,1.85742,
2012-07-25, 09:43:04,VALID,1005.21,VALID,0,VALID,89.0595,VALID,279.82,VALID,25.8453,VALID,293,VALID,1.8207,
2012-07-25, 09:44:04,VALID,1005.21,VALID,0,VALID,88.8383,VALID,272.403,VALID,25.8239,VALID,324,VALID,1.25898,
2012-07-25, 09:45:04,VALID,1005.25,VALID,0,VALID,89.9521,VALID,267.594,VALID,25.9038,VALID,268,VALID,0.691406,
2012-07-25, 09:46:04,VALID,1005.25,VALID,0,VALID,89.3037,VALID,264.17,VALID,25.9408,VALID,233,VALID,0.947656,
2012-07-25, 09:47:04,VALID,1005.27,VALID,0,VALID,86.9006,VALID,262.459,VALID,25.9622,VALID,230,VALID,1.56289,
2012-07-25, 09:48:04,VALID,1005.29,VALID,0,VALID,88.6018,VALID,262.377,VALID,25.9602,VALID,31,VALID,0.551562,
2012-07-25, 09:49:04,VALID,1005.34,VALID,0,VALID,88.7391,VALID,263.437,VALID,26.0401,VALID,24,VALID,0.657422,
2012-07-25, 09:50:04,VALID,1005.32,VALID,0,VALID,87.3659,VALID,265.801,VALID,26.0596,VALID,256,VALID,1.10195,
2012-07-25, 09:51:04,VALID,1005.35,VALID,0,VALID,88.5866,VALID,268.816,VALID,26.0576,VALID,199,VALID,0.385156,
2012-07-25, 09:52:04,VALID,1005.35,VALID,0,VALID,88.1212,VALID,272.158,VALID,26.0966,VALID,266,VALID,0.670703,
2012-07-25, 09:53:04,VALID,1005.34,VALID,0,VALID,87.4422,VALID,275.174,VALID,26.118,VALID,229,VALID,0.666016,
2012-07-25, 09:54:04,VALID,1005.35,VALID,0,VALID,86.7022,VALID,278.923,VALID,26.1375,VALID,260,VALID,1.07187,
2012-07-25, 09:55:04,VALID,1005.35,VALID,0,VALID,88.2127,VALID,282.917,VALID,26.157,VALID,268,VALID,0.763281,
2012-07-25, 09:56:04,VALID,1005.35,VALID,0,VALID,88.2433,VALID,287.645,VALID,26.2739,VALID,286,VALID,0.420312,
2012-07-25, 09:57:04,VALID,1005.34,VALID,0,VALID,87.0074,VALID,292.617,VALID,26.2349,VALID,261,VALID,0.991797,
2012-07-25, 09:58:04,VALID,1005.34,VALID,0,VALID,86.6183,VALID,297.263,VALID,26.2524,VALID,240,VALID,1.09727,
2012-07-25, 09:59:04,VALID,1005.33,VALID,0,VALID,87.4956,VALID,301.257,VALID,26.2739,VALID,255,VALID,0.347266,
2012-07-25, 10:00:04,VALID,1005.36,VALID,0,VALID,87.3965,VALID,304.517,VALID,26.3733,VALID,226,VALID,0.865625,
2012-07-25, 10:01:04,VALID,1005.36,VALID,0,VALID,85.1841,VALID,307.778,VALID,26.3713,VALID,217,VALID,1.15156,
2012-07-25, 10:02:04,VALID,1005.32,VALID,0,VALID,86.8243,VALID,311.12,VALID,26.4082,VALID,253,VALID,0.624609,
2012-07-25, 10:03:04,VALID,1005.35,VALID,0,VALID,86.8472,VALID,312.261,VALID,26.5076,VALID,211,VALID,0.623438,
2012-07-25, 10:04:04,VALID,1005.3,VALID,0,VALID,83.7575,VALID,311.446,VALID,26.5466,VALID,239,VALID,1.35508,
2012-07-25, 10:05:04,VALID,1005.33,VALID,0,VALID,84.2076,VALID,309.734,VALID,26.5855,VALID,242,VALID,1.65273,
2012-07-25, 10:06:04,VALID,1005.31,VALID,0,VALID,83.9558,VALID,307.941,VALID,26.5855,VALID,243,VALID,0.951172,
2012-07-25, 10:07:04,VALID,1005.3,VALID,0,VALID,83.5896,VALID,308.104,VALID,26.605,VALID,237,VALID,1.17031,
2012-07-25, 10:08:04,VALID,1005.28,VALID,0,VALID,85.596,VALID,309.408,VALID,26.6635,VALID,237,VALID,0.55,
2012-07-25, 10:09:04,VALID,1005.27,VALID,0,VALID,82.2088,VALID,307.941,VALID,26.7045,VALID,226,VALID,1.88906,
2012-07-25, 10:10:04,VALID,1005.23,VALID,0,VALID,83.8948,VALID,304.517,VALID,26.7434,VALID,258,VALID,0.932813,
2012-07-25, 10:11:04,VALID,1005.21,VALID,0,VALID,84.4517,VALID,300.116,VALID,26.7804,VALID,302,VALID,1.10977,
2012-07-25, 10:12:04,VALID,1005.24,VALID,0,VALID,81.7969,VALID,296.122,VALID,26.7998,VALID,235,VALID,1.6457,
2012-07-25, 10:13:04,VALID,1005.24,VALID,0,VALID,82.8268,VALID,291.15,VALID,26.8583,VALID,275,VALID,0.735156,
2012-07-25, 10:14:04,VALID,1005.23,VALID,0,VALID,82.9183,VALID,285.444,VALID,26.9362,VALID,255,VALID,1.20117,
2012-07-25, 10:15:04,VALID,1005.22,VALID,0,VALID,81.9952,VALID,279.983,VALID,26.9362,VALID,226,VALID,0.494531,
2012-07-25, 10:16:04,VALID,1005.26,VALID,0,VALID,81.8579,VALID,275.5,VALID,26.9947,VALID,180,VALID,0.525,
2012-07-25, 10:17:04,VALID,1005.26,VALID,0,VALID,82.041,VALID,272.403,VALID,27.0531,VALID,271,VALID,0.891797,
2012-07-25, 10:18:04,VALID,1005.21,VALID,0,VALID,79.9659,VALID,269.387,VALID,27.0531,VALID,252,VALID,1.52734,
2012-07-25, 10:19:04,VALID,1005.18,VALID,0,VALID,79.5997,VALID,267.268,VALID,27.0531,VALID,232,VALID,1.12969,
2012-07-25, 10:20:04,VALID,1005.2,VALID,0,VALID,81.5451,VALID,266.208,VALID,27.0531,VALID,271,VALID,0.539453,
2012-07-25, 10:21:04,VALID,1005.21,VALID,0,VALID,80.0346,VALID,266.86,VALID,27.0747,VALID,262,VALID,1.23594,
2012-07-25, 10:22:04,VALID,1005.2,VALID,0,VALID,80.5533,VALID,270.284,VALID,27.0921,VALID,256,VALID,1.06797,
2012-07-25, 10:23:04,VALID,1005.17,VALID,0,VALID,80.4465,VALID,277.945,VALID,27.0336,VALID,249,VALID,0.972656,
2012-07-25, 10:24:04,VALID,1005.12,VALID,0,VALID,80.7975,VALID,287.726,VALID,27.0336,VALID,281,VALID,1.12539,
2012-07-25, 10:25:04,VALID,1005.12,VALID,0,VALID,78.2037,VALID,297.345,VALID,27.0747,VALID,294,VALID,1.4875,
2012-07-25, 10:26:04,VALID,1005.12,VALID,0,VALID,81.3773,VALID,306.555,VALID,27.0942,VALID,279,VALID,0.808984,
2012-07-25, 10:27:04,VALID,1005.12,VALID,0,VALID,78.6919,VALID,314.543,VALID,27.0552,VALID,299,VALID,1.62188,
2012-07-25, 10:28:04,VALID,1005.09,VALID,0,VALID,79.4929,VALID,320.249,VALID,27.0357,VALID,244,VALID,1.47344,
2012-07-25, 10:29:04,VALID,1005.1,VALID,0,VALID,80.0346,VALID,315.603,VALID,27.0552,VALID,247,VALID,1.01602,
2012-07-25, 10:30:04,VALID,1005.14,VALID,0,VALID,82.7657,VALID,327.829,VALID,27.1526,VALID,266,VALID,0.554297,
2012-07-25, 10:31:04,VALID,1005.16,VALID,0,VALID,80.294,VALID,329.622,VALID,27.2695,VALID,246,VALID,0.957031,
2012-07-25, 10:32:04,VALID,1005.15,VALID,0,VALID,78.608,VALID,331.497,VALID,27.2695,VALID,261,VALID,1.44219,
2012-07-25, 10:33:04,VALID,1005.13,VALID,0,VALID,79.142,VALID,333.861,VALID,27.289,VALID,233,VALID,1.16875,
2012-07-25, 10:34:04,VALID,1005.12,VALID,0,VALID,79.9964,VALID,334.024,VALID,27.3085,VALID,255,VALID,0.679688,
2012-07-25, 10:35:04,VALID,1005.14,VALID,0,VALID,79.4472,VALID,336.469,VALID,27.3475,VALID,340,VALID,0.807813,
2012-07-25, 10:36:04,VALID,1005.1,VALID,0,VALID,78.4478,VALID,338.67,VALID,27.4059,VALID,226,VALID,1.08906,
2012-07-25, 10:37:04,VALID,1005.07,VALID,0,VALID,78.0206,VALID,344.538,VALID,27.5034,VALID,261,VALID,0.637891,
2012-07-25, 10:38:04,VALID,1005.03,VALID,0,VALID,78.7072,VALID,348.858,VALID,27.5577,VALID,243,VALID,1.08398,
2012-07-25, 10:39:04,VALID,1005.01,VALID,0,VALID,78.3333,VALID,350.651,VALID,27.6161,VALID,265,VALID,0.955078,
2012-07-25, 10:40:04,VALID,1004.98,VALID,0,VALID,76.9449,VALID,352.852,VALID,27.6767,VALID,286,VALID,1.3543,
2012-07-25, 10:41:04,VALID,1004.94,VALID,0,VALID,76.4414,VALID,353.097,VALID,27.7157,VALID,240,VALID,2.61406,
2012-07-25, 10:42:04,VALID,1004.95,VALID,0,VALID,78.4707,VALID,350.244,VALID,27.7157,VALID,330,VALID,0.697266,
2012-07-25, 10:43:04,VALID,1004.93,VALID,0,VALID,76.388,VALID,348.369,VALID,27.6962,VALID,244,VALID,1.8168,
2012-07-25, 10:44:04,VALID,1004.92,VALID,0,VALID,78.5317,VALID,343.886,VALID,27.6983,VALID,231,VALID,1.18086,
2012-07-25, 10:45:04,VALID,1004.87,VALID,0,VALID,77.5094,VALID,338.262,VALID,27.6572,VALID,223,VALID,1.11914,
2012-07-25, 10:46:04,VALID,1004.86,VALID,0,VALID,75.6709,VALID,334.35,VALID,27.6182,VALID,224,VALID,1.63828,
2012-07-25, 10:47:04,VALID,1004.86,VALID,0,VALID,78.5698,VALID,331.089,VALID,27.5577,VALID,258,VALID,1.16406,
2012-07-25, 10:48:04,VALID,1004.89,VALID,0,VALID,78.2189,VALID,331.252,VALID,27.5987,VALID,307,VALID,0.584375,
2012-07-25, 10:49:04,VALID,1004.87,VALID,0,VALID,77.8909,VALID,332.067,VALID,27.6788,VALID,266,VALID,1.50625,
2012-07-25, 10:50:04,VALID,1004.86,VALID,0,VALID,76.8839,VALID,337.284,VALID,27.7351,VALID,221,VALID,0.982031,
2012-07-25, 10:51:04,VALID,1004.86,VALID,0,VALID,76.7923,VALID,347.799,VALID,27.7957,VALID,243,VALID,0.809766,
2012-07-25, 10:52:04,VALID,1004.88,VALID,0,VALID,77.7078,VALID,339.322,VALID,27.8326,VALID,211,VALID,1.03008,
2012-07-25, 10:53:04,VALID,1004.86,VALID,0,VALID,77.4713,VALID,332.638,VALID,27.8326,VALID,215,VALID,1.00117,
2012-07-25, 10:54:04,VALID,1004.87,VALID,0,VALID,78.6766,VALID,318.537,VALID,27.9127,VALID,223,VALID,0.546875,
2012-07-25, 10:55:04,VALID,1004.9,VALID,0,VALID,78.1579,VALID,308.185,VALID,27.969,VALID,261,VALID,0.738672,
2012-07-25, 10:56:04,VALID,1004.87,VALID,0,VALID,74.7325,VALID,299.545,VALID,27.9906,VALID,236,VALID,1.61875,
2012-07-25, 10:57:04,VALID,1004.88,VALID,0,VALID,77.5552,VALID,309.734,VALID,27.8911,VALID,285,VALID,1.05664,
2012-07-25, 10:58:04,VALID,1004.9,VALID,0,VALID,75.5793,VALID,307.778,VALID,27.8716,VALID,220,VALID,1.6293,
2012-07-25, 10:59:04,VALID,1004.86,VALID,0,VALID,76.1744,VALID,310.304,VALID,27.7936,VALID,195,VALID,1.31836,
2012-07-25, 11:00:04,VALID,1004.87,VALID,0,VALID,77.1966,VALID,305.495,VALID,27.7178,VALID,213,VALID,1.28437,
2012-07-25, 11:01:04,VALID,1004.84,VALID,0,VALID,76.8991,VALID,306.555,VALID,27.6983,VALID,215,VALID,1.3082,
2012-07-25, 11:02:04,VALID,1004.86,VALID,0,VALID,77.456,VALID,302.806,VALID,27.6182,VALID,240,VALID,1.5918,
2012-07-25, 11:03:04,VALID,1004.84,VALID,0,VALID,78.6156,VALID,293.677,VALID,27.6377,VALID,14,VALID,1.10625,
2012-07-25, 11:04:04,VALID,1004.79,VALID,0,VALID,76.8762,VALID,288.134,VALID,27.6983,VALID,228,VALID,1.27852,
2012-07-25, 11:05:04,VALID,1004.76,VALID,0,VALID,77.2119,VALID,293.514,VALID,27.7178,VALID,200,VALID,1.09531,
2012-07-25, 11:06:04,VALID,1004.77,VALID,0,VALID,79.0199,VALID,282.754,VALID,27.7157,VALID,201,VALID,0.892187,
2012-07-25, 11:07:04,VALID,1004.75,VALID,0,VALID,77.395,VALID,284.792,VALID,27.7762,VALID,237,VALID,1.68398,
2012-07-25, 11:08:04,VALID,1004.74,VALID,0,VALID,77.6544,VALID,305.577,VALID,27.7546,VALID,242,VALID,2.33398,
2012-07-25, 11:09:04,VALID,1004.72,VALID,0,VALID,77.3416,VALID,342.908,VALID,27.7157,VALID,281,VALID,1.35625,
2012-07-25, 11:10:04,VALID,1004.7,VALID,0,VALID,78.4554,VALID,354.075,VALID,27.7741,VALID,281,VALID,1.49141,
2012-07-25, 11:11:04,VALID,1004.68,VALID,0,VALID,76.7618,VALID,342.908,VALID,27.8131,VALID,248,VALID,1.13398,
2012-07-25, 11:12:04,VALID,1004.67,VALID,0,VALID,77.1051,VALID,309,VALID,27.8716,VALID,238,VALID,0.917578,
2012-07-25, 11:13:04,VALID,1004.68,VALID,0,VALID,77.1738,VALID,264.904,VALID,27.8716,VALID,251,VALID,2.27891,
2012-07-25, 11:14:04,VALID,1004.63,VALID,0,VALID,78.6995,VALID,234.583,VALID,27.8305,VALID,272,VALID,0.530859,
2012-07-25, 11:15:04,VALID,1004.64,VALID,0,VALID,77.8146,VALID,267.349,VALID,27.9127,VALID,243,VALID,1.00078,
2012-07-25, 11:16:04,VALID,1004.62,VALID,0,VALID,77.2424,VALID,286.585,VALID,27.8716,VALID,220,VALID,1.40859,
2012-07-25, 11:17:04,VALID,1004.59,VALID,0,VALID,78.5164,VALID,297.834,VALID,27.8737,VALID,6,VALID,0.594531,
2012-07-25, 11:18:04,VALID,1004.56,VALID,0,VALID,77.5628,VALID,257.242,VALID,27.9105,VALID,313,VALID,0.873438,
2012-07-25, 11:19:04,VALID,1004.51,VALID,0,VALID,77.5399,VALID,241.837,VALID,27.9495,VALID,172,VALID,0.951563,
2012-07-25, 11:20:04,VALID,1004.5,VALID,0,VALID,78.0053,VALID,283.896,VALID,27.969,VALID,192,VALID,0.7875,
2012-07-25, 11:21:04,VALID,1004.44,VALID,0,VALID,77.868,VALID,360.269,VALID,27.9495,VALID,264,VALID,1.16016,
2012-07-25, 11:22:04,VALID,1004.45,VALID,0,VALID,78.2799,VALID,357.824,VALID,27.9711,VALID,268,VALID,0.977344,
2012-07-25, 11:23:04,VALID,1004.45,VALID,0,VALID,78.9131,VALID,337.121,VALID,28.0101,VALID,229,VALID,0.660937,
2012-07-25, 11:24:04,VALID,1004.44,VALID,0,VALID,78.0663,VALID,355.216,VALID,28.0665,VALID,224,VALID,0.975781,
2012-07-25, 11:25:04,VALID,1004.43,VALID,0,VALID,76.8533,VALID,348.369,VALID,28.1271,VALID,232,VALID,1.73477,
2012-07-25, 11:26:04,VALID,1004.41,VALID,0,VALID,78.3791,VALID,379.261,VALID,28.1271,VALID,233,VALID,1.24844,
2012-07-25, 11:27:04,VALID,1004.39,VALID,0,VALID,78.1121,VALID,404.61,VALID,28.1639,VALID,284,VALID,1.03984,
2012-07-25, 11:28:04,VALID,1004.42,VALID,0,VALID,77.8451,VALID,394.585,VALID,28.1639,VALID,248,VALID,1.24219,
2012-07-25, 11:29:04,VALID,1004.4,VALID,0,VALID,76.7542,VALID,387.738,VALID,28.2029,VALID,223,VALID,1.27383,
2012-07-25, 11:30:04,VALID,1004.43,VALID,0,VALID,76.4185,VALID,396.541,VALID,28.1834,VALID,225,VALID,2.71797,
2012-07-25, 11:31:04,VALID,1004.4,VALID,0,VALID,78.7148,VALID,391.65,VALID,28.1855,VALID,187,VALID,0.628125,
2012-07-25, 11:32:04,VALID,1004.4,VALID,0,VALID,78.6843,VALID,368.176,VALID,28.2245,VALID,230,VALID,0.8125,
2012-07-25, 11:33:04,VALID,1004.36,VALID,0,VALID,77.1204,VALID,426.781,VALID,28.2614,VALID,202,VALID,1.51328,
2012-07-25, 11:34:04,VALID,1004.35,VALID,0,VALID,78.3333,VALID,395.237,VALID,28.283,VALID,222,VALID,0.942578,
2012-07-25, 11:35:04,VALID,1004.33,VALID,0,VALID,77.3034,VALID,395.644,VALID,28.3198,VALID,234,VALID,1.23945,
2012-07-25, 11:36:04,VALID,1004.31,VALID,0,VALID,77.2195,VALID,406.892,VALID,28.4,VALID,195,VALID,1.23984,
2012-07-25, 11:37:04,VALID,1004.25,VALID,0,VALID,74.6333,VALID,399.883,VALID,28.4779,VALID,264,VALID,1.62539,
2012-07-25, 11:38:04,VALID,1004.25,VALID,0,VALID,76.2659,VALID,469.002,VALID,28.5148,VALID,248,VALID,1.13086,
2012-07-25, 11:39:04,VALID,1004.23,VALID,0,VALID,73.2373,VALID,423.52,VALID,28.5537,VALID,215,VALID,1.84609,
2012-07-25, 11:40:04,VALID,1004.19,VALID,0,VALID,75.7853,VALID,426.536,VALID,28.5148,VALID,259,VALID,0.839063,
2012-07-25, 11:41:04,VALID,1004.19,VALID,0,VALID,75.8616,VALID,472.752,VALID,28.5342,VALID,245,VALID,0.792188,
2012-07-25, 11:42:04,VALID,1004.18,VALID,0,VALID,75.8921,VALID,547.495,VALID,28.5949,VALID,217,VALID,1.35938,
2012-07-25, 11:43:04,VALID,1004.17,VALID,0,VALID,77.7154,VALID,446.098,VALID,28.7119,VALID,252,VALID,1.2082,
2012-07-25, 11:44:04,VALID,1004.12,VALID,0,VALID,73.5577,VALID,421.075,VALID,28.8093,VALID,238,VALID,0.9375,
2012-07-25, 11:45:04,VALID,1004.07,VALID,0,VALID,74.0841,VALID,462.237,VALID,28.7898,VALID,229,VALID,1.90937,
2012-07-25, 11:46:04,VALID,1004.04,VALID,0,VALID,73.8552,VALID,429.226,VALID,28.7292,VALID,217,VALID,2.88086,
2012-07-25, 11:47:04,VALID,1004.02,VALID,0,VALID,75.7548,VALID,426.455,VALID,28.688,VALID,280,VALID,1.6918,
2012-07-25, 11:48:04,VALID,1003.99,VALID,0,VALID,73.3212,VALID,408.278,VALID,28.766,VALID,234,VALID,1.475,
2012-07-25, 11:49:04,VALID,1003.97,VALID,0,VALID,74.3892,VALID,402.899,VALID,28.8461,VALID,179,VALID,0.876562,
2012-07-25, 11:50:04,VALID,1003.92,VALID,0,VALID,72.482,VALID,419.852,VALID,28.9046,VALID,225,VALID,1.78633,
2012-07-25, 11:51:04,VALID,1003.96,VALID,0,VALID,73.1457,VALID,430.367,VALID,28.7292,VALID,265,VALID,2.67852,
2012-07-25, 11:52:04,VALID,1003.95,VALID,0,VALID,73.489,VALID,421.075,VALID,28.6317,VALID,217,VALID,2.24844,
2012-07-25, 11:53:04,VALID,1003.99,VALID,0,VALID,74.7325,VALID,406.24,VALID,28.6707,VALID,255,VALID,1.03164,
2012-07-25, 11:54:04,VALID,1003.99,VALID,0,VALID,73.1533,VALID,400.779,VALID,28.7097,VALID,220,VALID,1.33438,
2012-07-25, 11:55:04,VALID,1003.98,VALID,0,VALID,76.2888,VALID,400.127,VALID,28.7097,VALID,309,VALID,0.613281,
2012-07-25, 11:56:04,VALID,1004.01,VALID,0,VALID,75.4801,VALID,397.763,VALID,28.8072,VALID,164,VALID,0.896875,
2012-07-25, 11:57:04,VALID,1003.94,VALID,0,VALID,73.1839,VALID,397.682,VALID,28.9631,VALID,239,VALID,1.44258,
2012-07-25, 11:58:04,VALID,1003.91,VALID,0,VALID,70.8342,VALID,404.692,VALID,28.9631,VALID,249,VALID,2.29805,
2012-07-25, 11:59:04,VALID,1003.91,VALID,0,VALID,74.3587,VALID,422.298,VALID,28.7682,VALID,240,VALID,1.42617,
2012-07-25, 12:00:04,VALID,1003.88,VALID,0,VALID,74.3129,VALID,538.448,VALID,28.7682,VALID,279,VALID,1.71445,
2012-07-25, 12:01:04,VALID,1003.85,VALID,0,VALID,74.7783,VALID,558.581,VALID,28.8678,VALID,289,VALID,1.09414,
2012-07-25, 12:02:04,VALID,1003.87,VALID,0,VALID,74.1146,VALID,421.727,VALID,28.9241,VALID,229,VALID,0.862891,
2012-07-25, 12:03:04,VALID,1003.82,VALID,0,VALID,72.688,VALID,401.105,VALID,28.9436,VALID,244,VALID,1.46523,
2012-07-25, 12:04:04,VALID,1003.83,VALID,0,VALID,72.276,VALID,397.763,VALID,28.8873,VALID,248,VALID,1.75937,
2012-07-25, 12:05:04,VALID,1003.86,VALID,0,VALID,73.077,VALID,390.02,VALID,28.7877,VALID,253,VALID,1.1918,
2012-07-25, 12:06:04,VALID,1003.83,VALID,0,VALID,73.2067,VALID,388.145,VALID,28.7855,VALID,235,VALID,2.77891,
2012-07-25, 12:07:04,VALID,1003.85,VALID,0,VALID,74.2824,VALID,390.998,VALID,28.7292,VALID,296,VALID,0.705469,
2012-07-25, 12:08:04,VALID,1003.84,VALID,0,VALID,74.7859,VALID,398.66,VALID,28.8267,VALID,261,VALID,1.06758,
2012-07-25, 12:09:04,VALID,1003.82,VALID,0,VALID,72.5735,VALID,433.138,VALID,28.8656,VALID,261,VALID,2.09219,
2012-07-25, 12:10:04,VALID,1003.8,VALID,0,VALID,72.7643,VALID,423.846,VALID,28.8267,VALID,265,VALID,1.16094,
2012-07-25, 12:11:04,VALID,1003.78,VALID,0,VALID,72.5354,VALID,410.642,VALID,28.7877,VALID,256,VALID,2.35195,
2012-07-25, 12:12:04,VALID,1003.77,VALID,0,VALID,73.7255,VALID,408.767,VALID,28.7682,VALID,230,VALID,1.47383,